Terug naar catalogus

FENGYUN 1C DEB

ActiefPO
NORAD 31630·DEBRIS·🇨🇳 China

Gelanceerd May 10, 1999 vanaf Taiyuan Satellite Launch Center

Loading…

Volgende Passages (komende 24 uur)

TLE

VersSource: Space-Track

Epoch: Sep 12, 2026, 06:43 UTC

1 31630U 99025CAL 26255.28011143  .00019229  00000-0  75372-3 0  9998
2 31630  98.0982  84.5067 0135928 146.2998 214.6970 15.17576391 27113

Volg FENGYUN 1C DEB in realtime met AllMySat

Download on the App Store